Regional Weather Roundup
Issued by NWS

Home | Current Version | Previous Version | Graphics & Text | Print | Product List | Glossary On
Versions: 1 2 3 4 5 6 7 8 9 10 11 12 13 14 15 16 17 18 19 20 21 22 23 24 25 26 27 28 29 30 31 32 33 34 35 36 37 38 39 40 41 42 43 44 45 46 47 48 49 50
000
ASUS43 KTOP 261059
RWRKS

WEATHER ROUNDUP FOR KANSAS
NATIONAL WEATHER SERVICE GOODLAND KS
600 AM CDT THU MAY 26 2016

NOTE:  "FAIR" INDICATES FEW OR NO CLOUDS BELOW 12,000 FEET WITH NO
SIGNIFICANT WEATHER AND/OR OBSTRUCTIONS TO VISIBILITY.

KSZ001>006-013>018-027>032-041>047-261200-
NORTHWEST KANSAS

CITY           SKY/WX    TMP DP  RH WIND       PRES   REMARKS
GOODLAND       CLOUDY    53  47  79 E6        29.92F
HAYS           CLOUDY    52  50  93 E9        29.82F
HILL CITY      CLOUDY    55  52  89 NE7       29.85F
RUSSELL        CLOUDY    60  56  86 E7        29.81F
$$

KSZ061>065-074>080-084>089-261200-
SOUTHWEST KANSAS

CITY           SKY/WX    TMP DP  RH WIND       PRES   REMARKS
DODGE CITY     FOG       66  66 100 SE10      29.79S VSB 1/4
ELKHART          N/A     51  33  50 W3          N/A
GARDEN CITY    MOCLDY    64  63  96 SE13      29.79S FOG
GREAT BEND     PTCLDY    66  59  77 E12       29.80F
LIBERAL        CLEAR     54  41  62 SW9       29.81F
$$

KSZ066>073-081>083-090>101-261200-
SOUTHEAST KANSAS

CITY           SKY/WX    TMP DP  RH WIND       PRES   REMARKS
CHANUTE        CLOUDY    75  72  90 S6        29.88R FOG
COFFEYVILLE    CLOUDY    76  73  91 S6        29.87R
HUTCHINSON     PTCLDY    70  67  90 E8        29.81F
MEDICINE LODGE   N/A     75  71  87 S12G21    29.77F
NEWTON         PTCLDY    70  64  83 S8        29.87F
PARSONS        CLOUDY    77  74  90 S6        29.88R
WICHITA INTL   CLOUDY    75  71  87 N5        29.83S
WICHITA JABRA  CLOUDY    74  72  93 CALM      29.84S
WICHITA MCCONL CLOUDY    75  72  88 S3        29.84R
WINFIELD       CLOUDY    76  73  91 S10       29.83S
$$

KSZ007>012-019>026-033>040-048>060-102>105-261200-
NORTHEAST KANSAS

CITY           SKY/WX    TMP DP  RH WIND       PRES   REMARKS
CONCORDIA      CLEAR     57  53  86 E7        29.86R
EMPORIA        CLEAR     72  70  93 SE10      29.85S
LAWRENCE       MOCLDY    65  62  90 E7        29.89S
MANHATTAN      CLOUDY    67  62  84 NE6       29.84R
OLATHE IND     CLOUDY    64  61  90 SE8       29.89F
OLATHE EXE     CLOUDY    61  59  93 S5        29.88F
SALINA         CLEAR     64  61  90 S3        29.82S
TOPEKA BILLARD CLOUDY    68  63  84 E3        29.87S
TOPEKA FORBES  MOCLDY    68  62  81 SE10      29.87R
$$




USA.gov is the U.S. government's official web portal to all federal, state and local government web resources and services.